Year,Month,Day,Hour,Minute,Value (Times are PST for windspeed in km/hr)
2008,03,02,00,00,0.00
2008,03,02,00,01,0.00
2008,03,02,00,02,0.70
2008,03,02,00,03,0.20
2008,03,02,00,04,0.00
2008,03,02,00,05,1.50
2008,03,02,00,06,0.40
2008,03,02,00,07,0.30
2008,03,02,00,08,0.00
2008,03,02,00,09,0.00
2008,03,02,00,10,0.20
2008,03,02,00,11,0.10
2008,03,02,00,12,0.00
2008,03,02,00,13,0.20
2008,03,02,00,14,0.40
2008,03,02,00,15,0.20
2008,03,02,00,16,0.10
2008,03,02,00,17,0.40
2008,03,02,00,18,0.90
2008,03,02,00,19,0.70
2008,03,02,00,20,0.80
2008,03,02,00,21,1.90
2008,03,02,00,22,1.00
2008,03,02,00,23,0.20
2008,03,02,00,24,0.80
2008,03,02,00,25,2.20
2008,03,02,00,26,1.00
2008,03,02,00,27,1.50
2008,03,02,00,28,0.60
2008,03,02,00,29,0.30
2008,03,02,00,30,0.20
2008,03,02,00,31,1.80
2008,03,02,00,32,0.00
2008,03,02,00,33,1.00
2008,03,02,00,34,0.30
2008,03,02,00,35,0.30
2008,03,02,00,36,0.30
2008,03,02,00,37,0.20
2008,03,02,00,38,0.10
2008,03,02,00,39,0.00
2008,03,02,00,40,0.60
2008,03,02,00,41,1.00
2008,03,02,00,42,0.60
2008,03,02,00,43,0.50
2008,03,02,00,44,0.00
2008,03,02,00,45,0.30
2008,03,02,00,46,1.00
2008,03,02,00,47,0.10
2008,03,02,00,48,0.10
2008,03,02,00,49,0.90
2008,03,02,00,50,0.40
2008,03,02,00,51,1.00
2008,03,02,00,52,0.40
2008,03,02,00,53,0.40
2008,03,02,00,54,1.00
2008,03,02,00,55,1.70
2008,03,02,00,56,0.70
2008,03,02,00,57,1.90
2008,03,02,00,58,2.90
2008,03,02,00,59,1.00
2008,03,02,01,00,2.00
2008,03,02,01,01,1.40
2008,03,02,01,02,3.50
2008,03,02,01,03,3.40
2008,03,02,01,04,2.60
2008,03,02,01,05,2.30
2008,03,02,01,06,1.00
2008,03,02,01,07,0.30
2008,03,02,01,08,0.00
2008,03,02,01,09,0.00
2008,03,02,01,10,0.00
2008,03,02,01,11,0.00
2008,03,02,01,12,0.00
2008,03,02,01,13,0.00
2008,03,02,01,14,0.00
2008,03,02,01,15,0.00
2008,03,02,01,16,0.30
2008,03,02,01,17,0.60
2008,03,02,01,18,0.20
2008,03,02,01,19,0.20
2008,03,02,01,20,0.60
2008,03,02,01,21,0.10
2008,03,02,01,22,0.60
2008,03,02,01,23,0.20
2008,03,02,01,24,0.10
2008,03,02,01,25,0.00
2008,03,02,01,26,0.00
2008,03,02,01,27,0.10
2008,03,02,01,28,0.10
2008,03,02,01,29,0.20
2008,03,02,01,30,0.00
2008,03,02,01,31,0.00
2008,03,02,01,32,0.00
2008,03,02,01,33,0.00
2008,03,02,01,34,0.00
2008,03,02,01,35,0.00
2008,03,02,01,36,1.20
2008,03,02,01,37,0.10
2008,03,02,01,38,0.10
2008,03,02,01,39,0.20
2008,03,02,01,40,0.10
2008,03,02,01,41,0.00
2008,03,02,01,42,1.90
2008,03,02,01,43,1.60
2008,03,02,01,44,2.50
2008,03,02,01,45,2.30
2008,03,02,01,46,0.70
2008,03,02,01,47,0.00
2008,03,02,01,48,1.00
2008,03,02,01,49,0.10
2008,03,02,01,50,0.00
2008,03,02,01,51,0.00
2008,03,02,01,52,0.00
2008,03,02,01,53,0.00
2008,03,02,01,54,0.00
2008,03,02,01,55,0.00
2008,03,02,01,56,0.20
2008,03,02,01,57,0.30
2008,03,02,01,58,0.60
2008,03,02,01,59,0.30
2008,03,02,02,00,1.00
2008,03,02,02,01,0.00
2008,03,02,02,02,1.20
2008,03,02,02,03,0.50
2008,03,02,02,04,0.60
2008,03,02,02,05,0.30
2008,03,02,02,06,0.80
2008,03,02,02,07,0.60
2008,03,02,02,08,0.20
2008,03,02,02,09,0.10
2008,03,02,02,10,0.00
2008,03,02,02,11,0.50
2008,03,02,02,12,0.20
2008,03,02,02,13,0.10
2008,03,02,02,14,0.20
2008,03,02,02,15,0.00
2008,03,02,02,16,0.00
2008,03,02,02,17,0.80
2008,03,02,02,18,0.10
2008,03,02,02,19,1.10
2008,03,02,02,20,0.20
2008,03,02,02,21,0.40
2008,03,02,02,22,1.90
2008,03,02,02,23,0.10
2008,03,02,02,24,0.60
2008,03,02,02,25,1.30
2008,03,02,02,26,0.50
2008,03,02,02,27,0.30
2008,03,02,02,28,0.30
2008,03,02,02,29,0.00
2008,03,02,02,30,0.10
2008,03,02,02,31,0.20
2008,03,02,02,32,0.40
2008,03,02,02,33,0.10
2008,03,02,02,34,0.00
2008,03,02,02,35,0.00
2008,03,02,02,36,0.00
2008,03,02,02,37,0.00
2008,03,02,02,38,0.10
2008,03,02,02,39,0.10
2008,03,02,02,40,0.00
2008,03,02,02,41,0.10
2008,03,02,02,42,1.00
2008,03,02,02,43,0.80
2008,03,02,02,44,0.20
2008,03,02,02,45,0.30
2008,03,02,02,46,0.80
2008,03,02,02,47,0.40
2008,03,02,02,48,0.80
2008,03,02,02,49,0.20
2008,03,02,02,50,0.00
2008,03,02,02,51,0.20
2008,03,02,02,52,0.50
2008,03,02,02,53,1.30
2008,03,02,02,54,1.00
2008,03,02,02,55,0.10
2008,03,02,02,56,1.20
2008,03,02,02,57,0.00
2008,03,02,02,58,0.10
2008,03,02,02,59,0.20
2008,03,02,03,00,0.40
2008,03,02,03,01,0.20
2008,03,02,03,02,2.70
2008,03,02,03,03,1.30
2008,03,02,03,04,2.70
2008,03,02,03,05,2.00
2008,03,02,03,06,3.50
2008,03,02,03,07,3.50
2008,03,02,03,08,2.00
2008,03,02,03,09,4.20
2008,03,02,03,10,4.20
2008,03,02,03,11,2.70
2008,03,02,03,12,1.40
2008,03,02,03,13,1.40
2008,03,02,03,14,0.70
2008,03,02,03,15,0.70
2008,03,02,03,16,0.10
2008,03,02,03,17,1.40
2008,03,02,03,18,0.50
2008,03,02,03,19,0.00
2008,03,02,03,20,0.30
2008,03,02,03,21,0.20
2008,03,02,03,22,0.90
2008,03,02,03,23,3.80
2008,03,02,03,24,3.00
2008,03,02,03,25,3.40
2008,03,02,03,26,3.30
2008,03,02,03,27,4.40
2008,03,02,03,28,4.10
2008,03,02,03,29,3.60
2008,03,02,03,30,2.40
2008,03,02,03,31,2.60
2008,03,02,03,32,3.50
2008,03,02,03,33,2.40
2008,03,02,03,34,2.30
2008,03,02,03,35,1.90
2008,03,02,03,36,0.90
2008,03,02,03,37,1.90
2008,03,02,03,38,0.80
2008,03,02,03,39,0.20
2008,03,02,03,40,1.00
2008,03,02,03,41,0.30
2008,03,02,03,42,0.60
2008,03,02,03,43,2.50
2008,03,02,03,44,0.20
2008,03,02,03,45,1.90
2008,03,02,03,46,1.60
2008,03,02,03,47,0.60
2008,03,02,03,48,2.10
2008,03,02,03,49,3.20
2008,03,02,03,50,2.40
2008,03,02,03,51,1.50
2008,03,02,03,52,0.30
2008,03,02,03,53,0.70
2008,03,02,03,54,0.30
2008,03,02,03,55,0.20
2008,03,02,03,56,0.00
2008,03,02,03,57,0.00
2008,03,02,03,58,0.00
2008,03,02,03,59,0.00
2008,03,02,04,00,0.00
2008,03,02,04,01,0.00
2008,03,02,04,02,0.00
2008,03,02,04,03,0.00
2008,03,02,04,04,0.10
2008,03,02,04,05,0.20
2008,03,02,04,06,0.00
2008,03,02,04,07,0.00
2008,03,02,04,08,0.00
2008,03,02,04,09,0.10
2008,03,02,04,10,0.00
2008,03,02,04,11,0.00
2008,03,02,04,12,0.00
2008,03,02,04,13,0.00
2008,03,02,04,14,0.00
2008,03,02,04,15,0.00
2008,03,02,04,16,0.00
2008,03,02,04,17,0.00
2008,03,02,04,18,0.00
2008,03,02,04,19,0.00
2008,03,02,04,20,0.00
2008,03,02,04,21,0.30
2008,03,02,04,22,1.10
2008,03,02,04,23,0.00
2008,03,02,04,24,0.30
2008,03,02,04,25,0.10
2008,03,02,04,26,0.00
2008,03,02,04,27,0.00
2008,03,02,04,28,0.40
2008,03,02,04,29,0.30
2008,03,02,04,30,1.80
2008,03,02,04,31,0.20
2008,03,02,04,32,0.10
2008,03,02,04,33,0.80
2008,03,02,04,34,0.00
2008,03,02,04,35,0.60
2008,03,02,04,36,0.10
2008,03,02,04,37,0.30
2008,03,02,04,38,0.10
2008,03,02,04,39,0.30
2008,03,02,04,40,0.00
2008,03,02,04,41,1.30
2008,03,02,04,42,1.40
2008,03,02,04,43,0.00
2008,03,02,04,44,1.00
2008,03,02,04,45,0.10
2008,03,02,04,46,0.20
2008,03,02,04,47,0.00
2008,03,02,04,48,0.30
2008,03,02,04,49,1.20
2008,03,02,04,50,0.30
2008,03,02,04,51,1.90
2008,03,02,04,52,2.00
2008,03,02,04,53,3.90
2008,03,02,04,54,3.60
2008,03,02,04,55,3.00
2008,03,02,04,56,1.30
2008,03,02,04,57,3.50
2008,03,02,04,58,1.60
2008,03,02,04,59,0.60
2008,03,02,05,00,0.30
2008,03,02,05,01,3.10
2008,03,02,05,02,2.60
2008,03,02,05,03,0.40
2008,03,02,05,04,0.80
2008,03,02,05,05,0.20
2008,03,02,05,06,0.00
2008,03,02,05,07,0.20
2008,03,02,05,08,1.30
2008,03,02,05,09,0.30
2008,03,02,05,10,0.60
2008,03,02,05,11,1.40
2008,03,02,05,12,0.50
2008,03,02,05,13,0.40
2008,03,02,05,14,0.20
2008,03,02,05,15,0.00
2008,03,02,05,16,0.30
2008,03,02,05,17,0.10
2008,03,02,05,18,0.20
2008,03,02,05,19,0.60
2008,03,02,05,20,0.00
2008,03,02,05,21,0.00
2008,03,02,05,22,0.00
2008,03,02,05,23,0.00
2008,03,02,05,24,0.00
2008,03,02,05,25,0.00
2008,03,02,05,26,0.00
2008,03,02,05,27,0.00
2008,03,02,05,28,0.00
2008,03,02,05,29,0.00
2008,03,02,05,30,0.00
2008,03,02,05,31,0.00
2008,03,02,05,32,0.00
2008,03,02,05,33,0.30
2008,03,02,05,34,0.00
2008,03,02,05,35,0.00
2008,03,02,05,36,0.00
2008,03,02,05,37,0.00
2008,03,02,05,38,0.00
2008,03,02,05,39,0.00
2008,03,02,05,40,0.00
2008,03,02,05,41,1.40
2008,03,02,05,42,3.00
2008,03,02,05,43,3.10
2008,03,02,05,44,2.60
2008,03,02,05,45,4.60
2008,03,02,05,46,3.40
2008,03,02,05,47,2.60
2008,03,02,05,48,1.60
2008,03,02,05,49,1.40
2008,03,02,05,50,1.40
2008,03,02,05,51,0.30
2008,03,02,05,52,0.30
2008,03,02,05,53,0.00
2008,03,02,05,54,0.10
2008,03,02,05,55,0.10
2008,03,02,05,56,0.00
2008,03,02,05,57,0.10
2008,03,02,05,58,0.00
2008,03,02,05,59,0.10
2008,03,02,06,00,0.30
2008,03,02,06,01,0.60
2008,03,02,06,02,0.30
2008,03,02,06,03,0.50
2008,03,02,06,04,1.30
2008,03,02,06,05,1.00
2008,03,02,06,06,0.30
2008,03,02,06,07,0.00
2008,03,02,06,08,0.10
2008,03,02,06,09,0.30
2008,03,02,06,10,0.10
2008,03,02,06,11,0.80
2008,03,02,06,12,0.70
2008,03,02,06,13,0.00
2008,03,02,06,14,0.70
2008,03,02,06,15,0.50
2008,03,02,06,16,0.10
2008,03,02,06,17,0.00
2008,03,02,06,18,0.80
2008,03,02,06,19,0.10
2008,03,02,06,20,0.00
2008,03,02,06,21,0.00
2008,03,02,06,22,0.30
2008,03,02,06,23,0.00
2008,03,02,06,24,0.00
2008,03,02,06,25,0.00
2008,03,02,06,26,0.00
2008,03,02,06,27,0.00
2008,03,02,06,28,0.00
2008,03,02,06,29,0.00
2008,03,02,06,30,0.00
2008,03,02,06,31,0.00
2008,03,02,06,32,0.10
2008,03,02,06,33,0.00
2008,03,02,06,34,0.00
2008,03,02,06,35,0.10
2008,03,02,06,36,0.00
2008,03,02,06,37,0.00
2008,03,02,06,38,0.00
2008,03,02,06,39,0.00
2008,03,02,06,40,0.00
2008,03,02,06,41,0.00
2008,03,02,06,42,0.00
2008,03,02,06,43,0.00
2008,03,02,06,44,0.00
2008,03,02,06,45,0.00
2008,03,02,06,46,0.00
2008,03,02,06,47,0.00
2008,03,02,06,48,0.00
2008,03,02,06,49,0.00
2008,03,02,06,50,0.00
2008,03,02,06,51,0.10
2008,03,02,06,52,0.00
2008,03,02,06,53,0.00
2008,03,02,06,54,0.00
2008,03,02,06,55,0.00
2008,03,02,06,56,0.00
2008,03,02,06,57,0.00
2008,03,02,06,58,0.00
2008,03,02,06,59,0.00
2008,03,02,07,00,0.00
2008,03,02,07,01,0.00
2008,03,02,07,02,0.00
2008,03,02,07,03,0.00
2008,03,02,07,04,0.00
2008,03,02,07,05,0.00
2008,03,02,07,06,0.00
2008,03,02,07,07,0.00
2008,03,02,07,08,0.00
2008,03,02,07,09,0.00
2008,03,02,07,10,0.00
2008,03,02,07,11,0.00
2008,03,02,07,12,0.00
2008,03,02,07,13,0.00
2008,03,02,07,14,0.00
2008,03,02,07,15,0.00
2008,03,02,07,16,0.10
2008,03,02,07,17,0.00
2008,03,02,07,18,0.00
2008,03,02,07,19,0.00
2008,03,02,07,20,0.00
2008,03,02,07,21,0.00
2008,03,02,07,22,0.00
2008,03,02,07,23,0.00
2008,03,02,07,24,0.00
2008,03,02,07,25,0.00
2008,03,02,07,26,0.00
2008,03,02,07,27,0.00
2008,03,02,07,28,0.10
2008,03,02,07,29,0.00
2008,03,02,07,30,0.00
2008,03,02,07,31,0.00
2008,03,02,07,32,0.00
2008,03,02,07,33,0.00
2008,03,02,07,34,0.00
2008,03,02,07,35,0.00
2008,03,02,07,36,0.00
2008,03,02,07,37,0.00
2008,03,02,07,38,0.00
2008,03,02,07,39,0.00
2008,03,02,07,40,0.00
2008,03,02,07,41,0.00
2008,03,02,07,42,0.00
2008,03,02,07,43,0.00
2008,03,02,07,44,0.00
2008,03,02,07,45,0.00
2008,03,02,07,46,0.10
2008,03,02,07,47,0.10
2008,03,02,07,48,0.10
2008,03,02,07,49,0.10
2008,03,02,07,50,0.00
2008,03,02,07,51,0.00
2008,03,02,07,52,0.00
2008,03,02,07,53,0.00
2008,03,02,07,54,0.00
2008,03,02,07,55,0.00
2008,03,02,07,56,0.00
2008,03,02,07,57,0.00
2008,03,02,07,58,0.00
2008,03,02,07,59,0.20
2008,03,02,08,00,0.00
2008,03,02,08,01,0.10
2008,03,02,08,02,0.10
2008,03,02,08,03,0.00
2008,03,02,08,04,0.00
2008,03,02,08,05,0.00
2008,03,02,08,06,0.00
2008,03,02,08,07,0.00
2008,03,02,08,08,0.00
2008,03,02,08,09,0.00
2008,03,02,08,10,0.00
2008,03,02,08,11,0.00
2008,03,02,08,12,0.00
2008,03,02,08,13,0.00
2008,03,02,08,14,0.00
2008,03,02,08,15,0.10
2008,03,02,08,16,0.10
2008,03,02,08,17,0.10
2008,03,02,08,18,0.00
2008,03,02,08,19,0.00
2008,03,02,08,20,0.00
2008,03,02,08,21,0.00
2008,03,02,08,22,0.00
2008,03,02,08,23,0.00
2008,03,02,08,24,0.00
2008,03,02,08,25,0.00
2008,03,02,08,26,0.00
2008,03,02,08,27,0.00
2008,03,02,08,28,0.00
2008,03,02,08,29,0.00
2008,03,02,08,30,0.00
2008,03,02,08,31,0.00
2008,03,02,08,32,0.00
2008,03,02,08,33,0.00
2008,03,02,08,34,0.00
2008,03,02,08,35,0.00
2008,03,02,08,36,0.00
2008,03,02,08,37,0.00
2008,03,02,08,38,0.00
2008,03,02,08,39,0.10
2008,03,02,08,40,0.00
2008,03,02,08,41,0.00
2008,03,02,08,42,0.10
2008,03,02,08,43,0.00
2008,03,02,08,44,0.10
2008,03,02,08,45,0.00
2008,03,02,08,46,0.10
2008,03,02,08,47,0.00
2008,03,02,08,48,0.00
2008,03,02,08,49,0.00
2008,03,02,08,50,0.20
2008,03,02,08,51,0.40
2008,03,02,08,52,0.00
2008,03,02,08,53,0.00
2008,03,02,08,54,0.00
2008,03,02,08,55,0.10
2008,03,02,08,56,0.10
2008,03,02,08,57,0.00
2008,03,02,08,58,0.00
2008,03,02,08,59,0.00
2008,03,02,09,00,0.00
2008,03,02,09,01,0.00
2008,03,02,09,02,0.00
2008,03,02,09,03,0.00
2008,03,02,09,04,0.00
2008,03,02,09,05,0.00
2008,03,02,09,06,0.00
2008,03,02,09,07,0.10
2008,03,02,09,08,0.00
2008,03,02,09,09,0.00
2008,03,02,09,10,0.00
2008,03,02,09,11,0.00
2008,03,02,09,12,0.00
2008,03,02,09,13,0.00
2008,03,02,09,14,0.10
2008,03,02,09,15,0.00
2008,03,02,09,16,0.00
2008,03,02,09,17,0.00
2008,03,02,09,18,0.00
2008,03,02,09,19,0.30
2008,03,02,09,20,0.20
2008,03,02,09,21,0.10
2008,03,02,09,22,0.00
2008,03,02,09,23,0.10
2008,03,02,09,24,0.00
2008,03,02,09,25,0.00
2008,03,02,09,26,0.10
2008,03,02,09,27,0.50
2008,03,02,09,28,0.00
2008,03,02,09,29,0.00
2008,03,02,09,30,0.20
2008,03,02,09,31,0.00
2008,03,02,09,32,0.00
2008,03,02,09,33,0.00
2008,03,02,09,34,0.10
2008,03,02,09,35,0.10
2008,03,02,09,36,0.10
2008,03,02,09,37,0.00
2008,03,02,09,38,0.00
2008,03,02,09,39,0.00
2008,03,02,09,40,0.00
2008,03,02,09,41,0.00
2008,03,02,09,42,0.00
2008,03,02,09,43,0.00
2008,03,02,09,44,0.10
2008,03,02,09,45,0.20
2008,03,02,09,46,0.60
2008,03,02,09,47,3.70
2008,03,02,09,48,1.50
2008,03,02,09,49,2.00
2008,03,02,09,50,4.90
2008,03,02,09,51,5.50
2008,03,02,09,52,4.90
2008,03,02,09,53,5.70
2008,03,02,09,54,2.70
2008,03,02,09,55,1.10
2008,03,02,09,56,0.00
2008,03,02,09,57,1.20
2008,03,02,09,58,0.10
2008,03,02,09,59,1.00
2008,03,02,10,00,2.20
2008,03,02,10,01,3.10
2008,03,02,10,02,2.80
2008,03,02,10,03,3.40
2008,03,02,10,04,5.10
2008,03,02,10,05,4.30
2008,03,02,10,06,3.50
2008,03,02,10,07,4.50
2008,03,02,10,08,3.90
2008,03,02,10,09,2.70
2008,03,02,10,10,2.30
2008,03,02,10,11,8.00
2008,03,02,10,12,8.10
2008,03,02,10,13,3.70
2008,03,02,10,14,3.40
2008,03,02,10,15,4.80
2008,03,02,10,16,5.90
2008,03,02,10,17,4.20
2008,03,02,10,18,2.50
2008,03,02,10,19,2.80
2008,03,02,10,20,5.20
2008,03,02,10,21,1.70
2008,03,02,10,22,2.30
2008,03,02,10,23,6.10
2008,03,02,10,24,4.90
2008,03,02,10,25,4.10
2008,03,02,10,26,4.00
2008,03,02,10,27,2.90
2008,03,02,10,28,1.30
2008,03,02,10,29,3.90
2008,03,02,10,30,6.70
2008,03,02,10,31,5.90
2008,03,02,10,32,4.70
2008,03,02,10,33,6.40
2008,03,02,10,34,3.60
2008,03,02,10,35,1.90
2008,03,02,10,36,1.20
2008,03,02,10,37,7.10
2008,03,02,10,38,6.60
2008,03,02,10,39,6.90
2008,03,02,10,40,2.10
2008,03,02,10,41,5.10
2008,03,02,10,42,4.30
2008,03,02,10,43,3.40
2008,03,02,10,44,6.30
2008,03,02,10,45,6.00
2008,03,02,10,46,4.00
2008,03,02,10,47,3.30
2008,03,02,10,48,5.80
2008,03,02,10,49,6.70
2008,03,02,10,50,8.20
2008,03,02,10,51,5.20
2008,03,02,10,52,7.70
2008,03,02,10,53,6.00
2008,03,02,10,54,5.00
2008,03,02,10,55,3.20
2008,03,02,10,56,3.30
2008,03,02,10,57,3.10
2008,03,02,10,58,4.30
2008,03,02,10,59,3.30
2008,03,02,11,00,3.10
2008,03,02,11,01,3.40
2008,03,02,11,02,7.20
2008,03,02,11,03,5.20
2008,03,02,11,04,3.10
2008,03,02,11,05,3.30
2008,03,02,11,06,5.80
2008,03,02,11,07,5.70
2008,03,02,11,08,2.10
2008,03,02,11,09,3.30
2008,03,02,11,10,5.30
2008,03,02,11,11,4.30
2008,03,02,11,12,2.40
2008,03,02,11,13,4.90
2008,03,02,11,14,7.00
2008,03,02,11,15,5.80
2008,03,02,11,16,6.20
2008,03,02,11,17,3.00
2008,03,02,11,18,4.60
2008,03,02,11,19,6.30
2008,03,02,11,20,3.40
2008,03,02,11,21,4.40
2008,03,02,11,22,4.20
2008,03,02,11,23,3.10
2008,03,02,11,24,3.20
2008,03,02,11,25,2.50
2008,03,02,11,26,3.20
2008,03,02,11,27,1.90
2008,03,02,11,28,4.10
2008,03,02,11,29,8.80
2008,03,02,11,30,4.60
2008,03,02,11,31,7.90
2008,03,02,11,32,6.00
2008,03,02,11,33,9.70
2008,03,02,11,34,5.60
2008,03,02,11,35,8.20
2008,03,02,11,36,10.90
2008,03,02,11,37,8.80
2008,03,02,11,38,11.70
2008,03,02,11,39,12.00
2008,03,02,11,40,11.90
2008,03,02,11,41,2.50
2008,03,02,11,42,1.40
2008,03,02,11,43,4.10
2008,03,02,11,44,10.60
2008,03,02,11,45,12.90
2008,03,02,11,46,13.30
2008,03,02,11,47,12.80
2008,03,02,11,48,10.50
2008,03,02,11,49,13.30
2008,03,02,11,50,14.60
2008,03,02,11,51,13.70
2008,03,02,11,52,9.70
2008,03,02,11,53,14.10
2008,03,02,11,54,12.40
2008,03,02,11,55,9.30
2008,03,02,11,56,17.10
2008,03,02,11,57,15.30
2008,03,02,11,58,16.60
2008,03,02,11,59,17.20
2008,03,02,12,00,10.10
2008,03,02,12,01,16.30
2008,03,02,12,02,7.50
2008,03,02,12,03,11.30
2008,03,02,12,04,10.40
2008,03,02,12,05,9.90
2008,03,02,12,06,12.10
2008,03,02,12,07,8.40
2008,03,02,12,08,11.30
2008,03,02,12,09,12.10
2008,03,02,12,10,15.60
2008,03,02,12,11,13.00
2008,03,02,12,12,16.10
2008,03,02,12,13,13.80
2008,03,02,12,14,11.50
2008,03,02,12,15,7.80
2008,03,02,12,16,16.20
2008,03,02,12,17,16.10
2008,03,02,12,18,8.50
2008,03,02,12,19,13.30
2008,03,02,12,20,17.00
2008,03,02,12,21,10.10
2008,03,02,12,22,8.10
2008,03,02,12,23,7.40
2008,03,02,12,24,8.10
2008,03,02,12,25,8.60
2008,03,02,12,26,7.20
2008,03,02,12,27,10.00
2008,03,02,12,28,10.80
2008,03,02,12,29,9.90
2008,03,02,12,30,10.70
2008,03,02,12,31,11.70
2008,03,02,12,32,8.90
2008,03,02,12,33,10.10
2008,03,02,12,34,8.90
2008,03,02,12,35,12.40
2008,03,02,12,36,9.40
2008,03,02,12,37,9.50
2008,03,02,12,38,10.40
2008,03,02,12,39,9.50
2008,03,02,12,40,9.20
2008,03,02,12,41,7.60
2008,03,02,12,42,9.30
2008,03,02,12,43,14.90
2008,03,02,12,44,12.40
2008,03,02,12,45,12.10
2008,03,02,12,46,9.60
2008,03,02,12,47,10.20
2008,03,02,12,48,9.80
2008,03,02,12,49,9.80
2008,03,02,12,50,12.80
2008,03,02,12,51,9.20
2008,03,02,12,52,7.70
2008,03,02,12,53,8.70
2008,03,02,12,54,14.20
2008,03,02,12,55,13.00
2008,03,02,12,56,10.60
2008,03,02,12,57,8.40
2008,03,02,12,58,9.60
2008,03,02,12,59,11.00
2008,03,02,13,00,8.50
2008,03,02,13,01,5.80
2008,03,02,13,02,6.00
2008,03,02,13,03,6.40
2008,03,02,13,04,8.60
2008,03,02,13,05,8.50
2008,03,02,13,06,4.70
2008,03,02,13,07,7.60
2008,03,02,13,08,8.40
2008,03,02,13,09,14.40
2008,03,02,13,10,9.50
2008,03,02,13,11,8.10
2008,03,02,13,12,10.60
2008,03,02,13,13,8.50
2008,03,02,13,14,10.30
2008,03,02,13,15,12.20
2008,03,02,13,16,9.00
2008,03,02,13,17,10.00
2008,03,02,13,18,11.00
2008,03,02,13,19,12.30
2008,03,02,13,20,13.30
2008,03,02,13,21,8.40
2008,03,02,13,22,10.40
2008,03,02,13,23,10.30
2008,03,02,13,24,8.60
2008,03,02,13,25,8.10
2008,03,02,13,26,8.40
2008,03,02,13,27,10.40
2008,03,02,13,28,5.60
2008,03,02,13,29,9.50
2008,03,02,13,30,10.00
2008,03,02,13,31,9.20
2008,03,02,13,32,11.20
2008,03,02,13,33,8.10
2008,03,02,13,34,8.10
2008,03,02,13,35,8.50
2008,03,02,13,36,9.30
2008,03,02,13,37,9.50
2008,03,02,13,38,8.90
2008,03,02,13,39,10.60
2008,03,02,13,40,12.60
2008,03,02,13,41,10.00
2008,03,02,13,42,11.50
2008,03,02,13,43,11.70
2008,03,02,13,44,8.90
2008,03,02,13,45,15.10
2008,03,02,13,46,12.80
2008,03,02,13,47,12.10
2008,03,02,13,48,10.70
2008,03,02,13,49,9.50
2008,03,02,13,50,13.00
2008,03,02,13,51,14.50
2008,03,02,13,52,14.00
2008,03,02,13,53,12.30
2008,03,02,13,54,12.60
2008,03,02,13,55,9.70
2008,03,02,13,56,11.50
2008,03,02,13,57,12.10
2008,03,02,13,58,9.90
2008,03,02,13,59,9.40
2008,03,02,14,00,10.80
2008,03,02,14,01,8.40
2008,03,02,14,02,13.40
2008,03,02,14,03,9.40
2008,03,02,14,04,8.10
2008,03,02,14,05,7.90
2008,03,02,14,06,10.20
2008,03,02,14,07,13.90
2008,03,02,14,08,11.90
2008,03,02,14,09,10.70
2008,03,02,14,10,8.90
2008,03,02,14,11,9.30
2008,03,02,14,12,10.00
2008,03,02,14,13,13.20
2008,03,02,14,14,8.80
2008,03,02,14,15,9.40
2008,03,02,14,16,15.50
2008,03,02,14,17,11.10
2008,03,02,14,18,16.80
2008,03,02,14,19,15.00
2008,03,02,14,20,15.60
2008,03,02,14,21,16.60
2008,03,02,14,22,14.80
2008,03,02,14,23,15.10
2008,03,02,14,24,9.60
2008,03,02,14,25,10.20
2008,03,02,14,26,14.60
2008,03,02,14,27,11.40
2008,03,02,14,28,11.00
2008,03,02,14,29,9.10
2008,03,02,14,30,6.40
2008,03,02,14,31,7.30
2008,03,02,14,32,13.10
2008,03,02,14,33,12.60
2008,03,02,14,34,17.80
2008,03,02,14,35,16.70
2008,03,02,14,36,14.20
2008,03,02,14,37,13.90
2008,03,02,14,38,9.20
2008,03,02,14,39,6.60
2008,03,02,14,40,6.20
2008,03,02,14,41,8.00
2008,03,02,14,42,11.60
2008,03,02,14,43,14.10
2008,03,02,14,44,10.30
2008,03,02,14,45,9.60
2008,03,02,14,46,12.00
2008,03,02,14,47,10.70
2008,03,02,14,48,9.70
2008,03,02,14,49,11.00
2008,03,02,14,50,8.50
2008,03,02,14,51,7.70
2008,03,02,14,52,8.40
2008,03,02,14,53,9.10
2008,03,02,14,54,11.10
2008,03,02,14,55,9.00
2008,03,02,14,56,12.70
2008,03,02,14,57,7.90
2008,03,02,14,58,6.40
2008,03,02,14,59,6.90
2008,03,02,15,00,9.10
2008,03,02,15,01,11.30
2008,03,02,15,02,10.40
2008,03,02,15,03,11.60
2008,03,02,15,04,12.90
2008,03,02,15,05,8.90
2008,03,02,15,06,4.10
2008,03,02,15,07,8.90
2008,03,02,15,08,12.20
2008,03,02,15,09,14.30
2008,03,02,15,10,10.80
2008,03,02,15,11,7.80
2008,03,02,15,12,9.30
2008,03,02,15,13,5.40
2008,03,02,15,14,9.20
2008,03,02,15,15,5.40
2008,03,02,15,16,9.30
2008,03,02,15,17,8.00
2008,03,02,15,18,13.70
2008,03,02,15,19,13.20
2008,03,02,15,20,14.30
2008,03,02,15,21,8.10
2008,03,02,15,22,6.50
2008,03,02,15,23,8.70
2008,03,02,15,24,5.50
2008,03,02,15,25,9.30
2008,03,02,15,26,9.90
2008,03,02,15,27,7.00
2008,03,02,15,28,13.40
2008,03,02,15,29,15.00
2008,03,02,15,30,10.50
2008,03,02,15,31,9.90
2008,03,02,15,32,9.10
2008,03,02,15,33,11.40
2008,03,02,15,34,10.10
2008,03,02,15,35,11.70
2008,03,02,15,36,9.50
2008,03,02,15,37,6.40
2008,03,02,15,38,6.40
2008,03,02,15,39,10.10
2008,03,02,15,40,14.60
2008,03,02,15,41,9.80
2008,03,02,15,42,13.20
2008,03,02,15,43,10.50
2008,03,02,15,44,9.30
2008,03,02,15,45,5.60
2008,03,02,15,46,9.60
2008,03,02,15,47,6.00
2008,03,02,15,48,10.40
2008,03,02,15,49,13.10
2008,03,02,15,50,9.90
2008,03,02,15,51,6.40
2008,03,02,15,52,7.10
2008,03,02,15,53,7.50
2008,03,02,15,54,5.20
2008,03,02,15,55,6.40
2008,03,02,15,56,10.50
2008,03,02,15,57,13.70
2008,03,02,15,58,7.20
2008,03,02,15,59,6.30
2008,03,02,16,00,10.30
2008,03,02,16,01,9.40
2008,03,02,16,02,7.30
2008,03,02,16,03,11.10
2008,03,02,16,04,11.20
2008,03,02,16,05,9.50
2008,03,02,16,06,8.90
2008,03,02,16,07,8.70
2008,03,02,16,08,13.90
2008,03,02,16,09,13.70
2008,03,02,16,10,10.40
2008,03,02,16,11,11.70
2008,03,02,16,12,9.50
2008,03,02,16,13,7.60
2008,03,02,16,14,7.30
2008,03,02,16,15,9.40
2008,03,02,16,16,7.20
2008,03,02,16,17,11.30
2008,03,02,16,18,10.70
2008,03,02,16,19,6.40
2008,03,02,16,20,7.50
2008,03,02,16,21,8.10
2008,03,02,16,22,7.50
2008,03,02,16,23,9.50
2008,03,02,16,24,9.40
2008,03,02,16,25,14.00
2008,03,02,16,26,12.00
2008,03,02,16,27,8.00
2008,03,02,16,28,10.50
2008,03,02,16,29,11.10
2008,03,02,16,30,12.00
2008,03,02,16,31,11.40
2008,03,02,16,32,10.80
2008,03,02,16,33,7.70
2008,03,02,16,34,12.50
2008,03,02,16,35,11.10
2008,03,02,16,36,10.50
2008,03,02,16,37,8.70
2008,03,02,16,38,9.00
2008,03,02,16,39,14.20
2008,03,02,16,40,11.00
2008,03,02,16,41,8.90
2008,03,02,16,42,6.40
2008,03,02,16,43,4.90
2008,03,02,16,44,6.90
2008,03,02,16,45,7.60
2008,03,02,16,46,8.60
2008,03,02,16,47,5.50
2008,03,02,16,48,6.30
2008,03,02,16,49,4.90
2008,03,02,16,50,6.20
2008,03,02,16,51,5.10
2008,03,02,16,52,5.00
2008,03,02,16,53,5.40
2008,03,02,16,54,2.10
2008,03,02,16,55,2.40
2008,03,02,16,56,7.60
2008,03,02,16,57,4.40
2008,03,02,16,58,6.80
2008,03,02,16,59,6.10
2008,03,02,17,00,4.00
2008,03,02,17,01,3.30
2008,03,02,17,02,8.20
2008,03,02,17,03,7.90
2008,03,02,17,04,5.70
2008,03,02,17,05,4.60
2008,03,02,17,06,4.80
2008,03,02,17,07,6.20
2008,03,02,17,08,7.70
2008,03,02,17,09,7.00
2008,03,02,17,10,5.60
2008,03,02,17,11,2.60
2008,03,02,17,12,7.00
2008,03,02,17,13,7.90
2008,03,02,17,14,6.00
2008,03,02,17,15,4.30
2008,03,02,17,16,4.20
2008,03,02,17,17,5.30
2008,03,02,17,18,3.30
2008,03,02,17,19,3.20
2008,03,02,17,20,6.00
2008,03,02,17,21,4.20
2008,03,02,17,22,5.80
2008,03,02,17,23,8.40
2008,03,02,17,24,7.30
2008,03,02,17,25,6.80
2008,03,02,17,26,5.40
2008,03,02,17,27,4.30
2008,03,02,17,28,5.40
2008,03,02,17,29,6.50
2008,03,02,17,30,5.70
2008,03,02,17,31,5.80
2008,03,02,17,32,7.20
2008,03,02,17,33,7.50
2008,03,02,17,34,3.20
2008,03,02,17,35,5.70
2008,03,02,17,36,6.00
2008,03,02,17,37,6.80
2008,03,02,17,38,6.40
2008,03,02,17,39,6.70
2008,03,02,17,40,9.60
2008,03,02,17,41,5.80
2008,03,02,17,42,6.90
2008,03,02,17,43,6.90
2008,03,02,17,44,6.90
2008,03,02,17,45,4.60
2008,03,02,17,46,4.90
2008,03,02,17,47,6.30
2008,03,02,17,48,3.40
2008,03,02,17,49,4.50
2008,03,02,17,50,2.30
2008,03,02,17,51,2.60
2008,03,02,17,52,2.10
2008,03,02,17,53,0.20
2008,03,02,17,54,0.40
2008,03,02,17,55,0.10
2008,03,02,17,56,2.00
2008,03,02,17,57,0.90
2008,03,02,17,58,2.60
2008,03,02,17,59,4.30